,,�O�C���x [��],����1,���ԉ��x [��],����2,���Ԏ��x [��],����3,�Q�����x [��],����4,���� [��],����5
2003/6/1,0:00,15.5,0 ,23.6,0 ,61.3,0 ,22.9,0 ,22.2,0 
2003/6/1,0:15,15.6,0 ,23.6,0 ,62.1,0 ,22.9,0 ,22.1,0 
2003/6/1,0:30,15.6,0 ,23.5,0 ,62.2,0 ,22.9,0 ,22.2,0 
2003/6/1,0:45,15.8,0 ,23.6,0 ,63.2,0 ,22.9,0 ,22.2,0 
2003/6/1,1:00,15.7,0 ,23.5,0 ,63.5,0 ,22.9,0 ,22.2,0 
2003/6/1,1:15,15.8,0 ,23.4,0 ,63.6,0 ,23,0 ,22.2,0 
2003/6/1,1:30,15.9,0 ,23.4,0 ,63.5,0 ,23,0 ,22.2,0 
2003/6/1,1:45,15.8,0 ,23.3,0 ,63.5,0 ,23,0 ,22.2,0 
2003/6/1,2:00,15.8,0 ,23.3,0 ,63.5,0 ,23,0 ,22.2,0 
2003/6/1,2:15,15.7,0 ,23.2,0 ,63.4,0 ,23,0 ,22.2,0 
2003/6/1,2:30,15.6,0 ,23.2,0 ,63.5,0 ,23,0 ,22.2,0 
2003/6/1,2:45,15.7,0 ,23.1,0 ,63.3,0 ,23,0 ,22.2,0 
2003/6/1,3:00,15.9,0 ,23.1,0 ,63.1,0 ,23,0 ,22.1,0 
2003/6/1,3:15,15.9,0 ,23.1,0 ,63.3,0 ,23,0 ,22.1,0 
2003/6/1,3:30,15.9,0 ,23,0 ,63.2,0 ,23,0 ,22.1,0 
2003/6/1,3:45,16,0 ,23,0 ,63.2,0 ,22.9,0 ,22.1,0 
2003/6/1,4:00,15.9,0 ,23,0 ,63.2,0 ,22.9,0 ,22.1,0 
2003/6/1,4:15,15.9,0 ,23,0 ,63.2,0 ,22.9,0 ,22.1,0 
2003/6/1,4:30,16,0 ,22.9,0 ,63.3,0 ,22.8,0 ,22,0 
2003/6/1,4:45,16.1,0 ,22.9,0 ,63.2,0 ,22.8,0 ,22,0 
2003/6/1,5:00,16.2,0 ,22.9,0 ,63.1,0 ,22.8,0 ,22,0 
2003/6/1,5:15,16.2,0 ,22.9,0 ,63.2,0 ,22.8,0 ,22,0 
2003/6/1,5:30,16.2,0 ,22.8,0 ,63.3,0 ,22.8,0 ,22,0 
2003/6/1,5:45,16.4,0 ,22.8,0 ,63.3,0 ,22.8,0 ,22,0 
2003/6/1,6:00,16.5,0 ,22.8,0 ,63.3,0 ,22.7,0 ,22,0 
2003/6/1,6:15,16.5,0 ,22.8,0 ,63.4,0 ,22.8,0 ,22,0 
2003/6/1,6:30,16.6,0 ,22.7,0 ,63.5,0 ,22.8,0 ,22,0 
2003/6/1,6:45,16.7,0 ,22.7,0 ,63.7,0 ,22.8,0 ,22,0 
2003/6/1,7:00,16.8,0 ,22.7,0 ,63.7,0 ,22.8,0 ,22,0 
2003/6/1,7:15,16.8,0 ,22.7,0 ,63.7,0 ,22.8,0 ,22,0 
2003/6/1,7:30,16.9,0 ,22.8,0 ,64,0 ,22.8,0 ,22.1,0 
2003/6/1,7:45,17,0 ,22.8,0 ,64.2,0 ,22.7,0 ,22.1,0 
2003/6/1,8:00,17,0 ,22.9,0 ,64.7,0 ,22.7,0 ,22.1,0 
2003/6/1,8:15,17,0 ,22.9,0 ,64.9,0 ,22.7,0 ,22.1,0 
2003/6/1,8:30,17.1,0 ,23,0 ,64.6,0 ,22.6,0 ,22.1,0 
2003/6/1,8:45,17.3,0 ,23,0 ,64.4,0 ,22.6,0 ,22.1,0 
2003/6/1,9:00,17.4,0 ,23,0 ,64.3,0 ,22.6,0 ,22.2,0 
2003/6/1,9:15,17.5,0 ,23,0 ,64,0 ,22.6,0 ,22.2,0 
2003/6/1,9:30,17.6,0 ,23.1,0 ,64,0 ,22.6,0 ,22.3,0 
2003/6/1,9:45,17.7,0 ,23.1,0 ,64,0 ,22.6,0 ,22.2,0 
2003/6/1,10:00,17.9,0 ,23.1,0 ,63.8,0 ,22.6,0 ,22.3,0 
2003/6/1,10:15,18.2,0 ,23.2,0 ,63.1,0 ,22.7,0 ,22.4,0 
2003/6/1,10:30,18.8,0 ,23.3,0 ,63.5,0 ,22.8,0 ,22.4,0 
2003/6/1,10:45,19.4,0 ,23.3,0 ,64.3,0 ,22.8,0 ,22.4,0 
2003/6/1,11:00,19,0 ,23.4,0 ,64.1,0 ,22.9,0 ,22.5,0 
2003/6/1,11:15,19.3,0 ,23.5,0 ,63.7,0 ,23,0 ,22.6,0 
2003/6/1,11:30,19.8,0 ,23.5,0 ,64.1,0 ,23.1,0 ,22.7,0 
2003/6/1,11:45,20,0 ,23.5,0 ,64.7,0 ,23.2,0 ,22.7,0 
2003/6/1,12:00,20.1,0 ,23.5,0 ,65.4,0 ,23.2,0 ,22.8,0 
2003/6/1,12:15,20.4,0 ,23.6,0 ,66.6,0 ,23.2,0 ,22.8,0 
2003/6/1,12:30,20.4,0 ,23.6,0 ,65.8,0 ,23.3,0 ,22.8,0 
2003/6/1,12:45,20.5,0 ,23.8,0 ,65.8,0 ,23.3,0 ,22.8,0 
2003/6/1,13:00,20.4,0 ,23.7,0 ,65.5,0 ,23.3,0 ,22.8,0 
2003/6/1,13:15,20.1,0 ,23.7,0 ,65.2,0 ,23.3,0 ,22.8,0 
2003/6/1,13:30,19.6,0 ,23.7,0 ,65.4,0 ,23.3,0 ,22.8,0 
2003/6/1,13:45,19.3,0 ,23.6,0 ,65.8,0 ,23.3,0 ,22.8,0 
2003/6/1,14:00,19.3,0 ,23.7,0 ,65.3,0 ,23.3,0 ,22.8,0 
2003/6/1,14:15,19.3,0 ,23.6,0 ,65.3,0 ,23.4,0 ,22.8,0 
2003/6/1,14:30,19.4,0 ,23.6,0 ,65.4,0 ,23.4,0 ,22.8,0 
2003/6/1,14:45,19.3,0 ,23.7,0 ,65.3,0 ,23.4,0 ,22.8,0 
2003/6/1,15:00,19.3,0 ,23.6,0 ,65.5,0 ,23.4,0 ,22.8,0 
2003/6/1,15:15,19.4,0 ,23.5,0 ,65.7,0 ,23.4,0 ,22.8,0 
2003/6/1,15:30,19.3,0 ,23.5,0 ,65.5,0 ,23.4,0 ,22.8,0 
2003/6/1,15:45,19,0 ,23.6,0 ,65.1,0 ,23.4,0 ,22.8,0 
2003/6/1,16:00,18.9,0 ,23.5,0 ,65.5,0 ,23.4,0 ,22.8,0 
2003/6/1,16:15,18.6,0 ,23.5,0 ,65.6,0 ,23.4,0 ,22.8,0 
2003/6/1,16:30,18.4,0 ,23.5,0 ,65.8,0 ,23.4,0 ,22.8,0 
2003/6/1,16:45,18.2,0 ,23.5,0 ,65.8,0 ,23.4,0 ,22.7,0 
2003/6/1,17:00,17.7,0 ,23.4,0 ,65.7,0 ,23.4,0 ,22.7,0 
2003/6/1,17:15,17.8,0 ,23.4,0 ,65.5,0 ,23.3,0 ,22.7,0 
2003/6/1,17:30,17.6,0 ,23.4,0 ,65.9,0 ,23.3,0 ,22.7,0 
2003/6/1,17:45,17.4,0 ,23.4,0 ,65.8,0 ,23.3,0 ,22.6,0 
2003/6/1,18:00,17.3,0 ,23.4,0 ,66.5,0 ,23.3,0 ,22.6,0 
2003/6/1,18:15,17.2,0 ,23.4,0 ,66.5,0 ,23.2,0 ,22.5,0 
2003/6/1,18:30,17.2,0 ,23.4,0 ,66,0 ,23.2,0 ,22.5,0 
2003/6/1,18:45,17.3,0 ,23.5,0 ,66.2,0 ,23.1,0 ,22.4,0 
2003/6/1,19:00,17.6,0 ,23.6,0 ,65.9,0 ,23.1,0 ,22.4,0 
2003/6/1,19:15,17.2,0 ,23.6,0 ,65.5,0 ,23.1,0 ,22.4,0 
2003/6/1,19:30,16.9,0 ,23.7,0 ,65,0 ,23,0 ,22.4,0 
2003/6/1,19:45,16.6,0 ,23.7,0 ,64.9,0 ,23,0 ,22.3,0 
2003/6/1,20:00,16.9,0 ,23.7,0 ,64.8,0 ,23,0 ,22.3,0 
2003/6/1,20:15,16.2,0 ,23.6,0 ,64.8,0 ,22.9,0 ,22.3,0 
2003/6/1,20:30,16.8,0 ,23.6,0 ,64.7,0 ,22.9,0 ,22.2,0 
2003/6/1,20:45,16.3,0 ,23.6,0 ,64.4,0 ,22.8,0 ,22.2,0 
2003/6/1,21:00,15.8,0 ,23.5,0 ,64.4,0 ,22.8,0 ,22.2,0 
2003/6/1,21:15,15.9,0 ,23.5,0 ,64.5,0 ,22.8,0 ,22.2,0 
2003/6/1,21:30,15.8,0 ,23.5,0 ,64.8,0 ,22.7,0 ,22.2,0 
2003/6/1,21:45,15.4,0 ,23.5,0 ,65.4,0 ,22.7,0 ,22.1,0 
2003/6/1,22:00,15.3,0 ,23.5,0 ,65.5,0 ,22.7,0 ,22.1,0 
2003/6/1,22:15,15.1,0 ,23.5,0 ,65.4,0 ,22.7,0 ,22.1,0 
2003/6/1,22:30,14.5,0 ,23.5,0 ,65.2,0 ,22.6,0 ,22,0 
2003/6/1,22:45,14.2,0 ,23.4,0 ,65.3,0 ,22.7,0 ,22,0 
2003/6/1,23:00,14.7,0 ,23.3,0 ,65.1,0 ,22.7,0 ,21.9,0 
2003/6/1,23:15,14.6,0 ,23.3,0 ,64.9,0 ,22.6,0 ,21.9,0 
2003/6/1,23:30,14.2,0 ,23.2,0 ,65.2,0 ,22.6,0 ,21.8,0 
2003/6/1,23:45,14.2,0 ,23.1,0 ,65.1,0 ,22.6,0 ,21.8,0 
2003/6/2,0:00,13.9,0 ,23.2,0 ,64.5,0 ,22.6,0 ,21.8,0 
2003/6/2,0:15,13.7,0 ,23.1,0 ,64.5,0 ,22.5,0 ,21.7,0 
2003/6/2,0:30,13.1,0 ,23,0 ,65.8,0 ,22.5,0 ,21.7,0 
2003/6/2,0:45,12.7,0 ,22.9,0 ,65.7,0 ,22.5,0 ,21.6,0 
2003/6/2,1:00,13.7,0 ,22.9,0 ,65.2,0 ,22.5,0 ,21.6,0 
2003/6/2,1:15,13.8,0 ,22.8,0 ,65.2,0 ,22.4,0 ,21.6,0 
2003/6/2,1:30,13.8,0 ,22.7,0 ,65.3,0 ,22.4,0 ,21.6,0 
2003/6/2,1:45,13.6,0 ,22.6,0 ,65.4,0 ,22.4,0 ,21.5,0 
2003/6/2,2:00,13.8,0 ,22.6,0 ,65.2,0 ,22.3,0 ,21.5,0 
2003/6/2,2:15,13,0 ,22.5,0 ,65.3,0 ,22.3,0 ,21.4,0 
2003/6/2,2:30,12.9,0 ,22.4,0 ,65.3,0 ,22.3,0 ,21.4,0 
2003/6/2,2:45,12.8,0 ,22.4,0 ,65.2,0 ,22.2,0 ,21.3,0 
2003/6/2,3:00,13,0 ,22.3,0 ,65.2,0 ,22.2,0 ,21.2,0 
2003/6/2,3:15,13.3,0 ,22.2,0 ,65.2,0 ,22.2,0 ,21.2,0 
2003/6/2,3:30,13,0 ,22.2,0 ,65.2,0 ,22.1,0 ,21.1,0 
2003/6/2,3:45,12.6,0 ,22.1,0 ,65.2,0 ,22.1,0 ,21.1,0 
2003/6/2,4:00,12.5,0 ,22,0 ,65.2,0 ,22,0 ,21,0 
2003/6/2,4:15,12,0 ,22,0 ,65.1,0 ,21.9,0 ,21,0 
2003/6/2,4:30,12.1,0 ,21.9,0 ,65.1,0 ,21.9,0 ,20.9,0 
2003/6/2,4:45,12.2,0 ,21.9,0 ,64.9,0 ,21.8,0 ,20.9,0 
2003/6/2,5:00,12.6,0 ,21.9,0 ,65.2,0 ,21.7,0 ,20.9,0 
2003/6/2,5:15,12.3,0 ,21.9,0 ,64.9,0 ,21.7,0 ,20.9,0 
2003/6/2,5:30,12.7,0 ,21.8,0 ,64.9,0 ,21.6,0 ,20.8,0 
2003/6/2,5:45,12.7,0 ,21.8,0 ,65,0 ,21.5,0 ,20.8,0 
2003/6/2,6:00,12.9,0 ,21.7,0 ,65.1,0 ,21.5,0 ,20.8,0 
2003/6/2,6:15,13.2,0 ,21.7,0 ,65.5,0 ,21.4,0 ,20.8,0 
2003/6/2,6:30,13.4,0 ,21.7,0 ,65.4,0 ,21.4,0 ,20.7,0 
2003/6/2,6:45,14.1,0 ,21.8,0 ,65.2,0 ,21.3,0 ,20.7,0 
2003/6/2,7:00,14.4,0 ,21.8,0 ,65.2,0 ,21.3,0 ,20.7,0 
2003/6/2,7:15,14.6,0 ,21.9,0 ,65.2,0 ,21.3,0 ,20.7,0 
2003/6/2,7:30,14.7,0 ,21.9,0 ,65.1,0 ,21.3,0 ,20.7,0 
2003/6/2,7:45,15.1,0 ,22,0 ,65,0 ,21.3,0 ,20.7,0 
2003/6/2,8:00,15.4,0 ,22,0 ,64.7,0 ,21.4,0 ,20.7,0 
2003/6/2,8:15,15.6,0 ,22.1,0 ,64.6,0 ,21.5,0 ,20.7,0 
2003/6/2,8:30,16,0 ,22.3,0 ,64,0 ,21.6,0 ,20.7,0 
2003/6/2,8:45,16.1,0 ,22.3,0 ,63.8,0 ,21.6,0 ,20.8,0 
2003/6/2,9:00,16.7,0 ,22.3,0 ,63.9,0 ,21.7,0 ,20.8,0 
2003/6/2,9:15,16.5,0 ,22.4,0 ,63.5,0 ,21.7,0 ,20.8,0 
2003/6/2,9:30,17.2,0 ,22.5,0 ,63.3,0 ,21.8,0 ,20.9,0 
2003/6/2,9:45,17.3,0 ,22.8,0 ,62.2,0 ,21.9,0 ,21,0 
2003/6/2,10:00,17.4,0 ,22.5,0 ,57.1,0 ,21.9,0 ,21,0 
2003/6/2,10:15,17.9,0 ,22.4,0 ,52.6,0 ,22,0 ,21.1,0 
2003/6/2,10:30,18.5,0 ,22.3,0 ,50.8,0 ,22.1,0 ,21.2,0 
2003/6/2,10:45,17.8,0 ,22.3,0 ,49.2,0 ,22.2,0 ,21.2,0 
2003/6/2,11:00,18.1,0 ,22.4,0 ,49,0 ,22.3,0 ,21.3,0 
2003/6/2,11:15,18.4,0 ,22.4,0 ,47.6,0 ,22.4,0 ,21.4,0 
2003/6/2,11:30,18.9,0 ,22.4,0 ,50.4,0 ,22.5,0 ,21.4,0 
2003/6/2,11:45,18.7,0 ,22.6,0 ,52.2,0 ,22.5,0 ,21.5,0 
2003/6/2,12:00,19.2,0 ,22.7,0 ,53,0 ,22.6,0 ,21.5,0 
2003/6/2,12:15,19,0 ,22.8,0 ,54,0 ,22.7,0 ,21.6,0 
2003/6/2,12:30,19.1,0 ,22.9,0 ,55.3,0 ,22.7,0 ,21.6,0 
2003/6/2,12:45,19.5,0 ,23,0 ,56.3,0 ,22.8,0 ,21.7,0 
2003/6/2,13:00,19.9,0 ,23.1,0 ,56.7,0 ,22.9,0 ,21.7,0 
2003/6/2,13:15,19.2,0 ,23.1,0 ,57,0 ,22.9,0 ,21.7,0 
2003/6/2,13:30,19.9,0 ,23.2,0 ,57.2,0 ,23,0 ,21.8,0 
2003/6/2,13:45,18.9,0 ,23.2,0 ,57.4,0 ,23,0 ,21.8,0 
2003/6/2,14:00,18.2,0 ,23.2,0 ,57.5,0 ,23,0 ,21.8,0 
2003/6/2,14:15,17.7,0 ,23.3,0 ,57.4,0 ,23.1,0 ,21.9,0 
2003/6/2,14:30,17.9,0 ,23.4,0 ,57.5,0 ,23.2,0 ,22.1,0 
2003/6/2,14:45,17.9,0 ,23.4,0 ,57.5,0 ,23.3,0 ,22.3,0 
2003/6/2,15:00,19.3,0 ,23.3,0 ,58.1,0 ,23.3,0 ,22.3,0 
2003/6/2,15:15,18.9,0 ,23.3,0 ,58.4,0 ,23.3,0 ,22.3,0 
2003/6/2,15:30,18.6,0 ,23.2,0 ,58.6,0 ,23.3,0 ,22.3,0 
2003/6/2,15:45,18.2,0 ,23.2,0 ,59,0 ,23.3,0 ,22.3,0 
2003/6/2,16:00,17.6,0 ,23.2,0 ,59,0 ,23.3,0 ,22.3,0 
2003/6/2,16:15,18,0 ,23.4,0 ,59.5,0 ,23.6,0 ,22.6,0 
2003/6/2,16:30,17.9,0 ,23.4,0 ,59.8,0 ,23.8,0 ,22.8,0 
2003/6/2,16:45,19.2,0 ,23.5,0 ,59.7,0 ,24,0 ,23,0 
2003/6/2,17:00,18.2,0 ,23.5,0 ,59.9,0 ,24.3,0 ,23.3,0 
2003/6/2,17:15,18.3,0 ,23.5,0 ,60.4,0 ,24.1,0 ,23.2,0 
2003/6/2,17:30,18.2,0 ,23.4,0 ,60.7,0 ,24,0 ,23.1,0 
2003/6/2,17:45,18,0 ,23.5,0 ,61.1,0 ,24.1,0 ,23.2,0 
2003/6/2,18:00,17.9,0 ,23.5,0 ,61.7,0 ,24.1,0 ,23.2,0 
2003/6/2,18:15,17.7,0 ,23.4,0 ,61.8,0 ,24,0 ,23.1,0 
2003/6/2,18:30,16.8,0 ,23.4,0 ,61.5,0 ,23.8,0 ,22.9,0 
2003/6/2,18:45,16.7,0 ,23.4,0 ,61.3,0 ,23.7,0 ,22.8,0 
2003/6/2,19:00,16.6,0 ,23.4,0 ,61.1,0 ,23.6,0 ,22.7,0 
2003/6/2,19:15,16.3,0 ,23.4,0 ,61.4,0 ,23.4,0 ,22.6,0 
2003/6/2,19:30,16.1,0 ,23.4,0 ,61.2,0 ,23.3,0 ,22.5,0 
2003/6/2,19:45,15.7,0 ,23.4,0 ,61.1,0 ,23.2,0 ,22.4,0 
2003/6/2,20:00,15.8,0 ,23.4,0 ,61.2,0 ,23.2,0 ,22.4,0 
2003/6/2,20:15,15.7,0 ,23.4,0 ,61,0 ,23.1,0 ,22.3,0 
2003/6/2,20:30,15.5,0 ,23.4,0 ,60.5,0 ,23,0 ,22.3,0 
2003/6/2,20:45,15.6,0 ,23.4,0 ,60.8,0 ,23,0 ,22.2,0 
2003/6/2,21:00,15.2,0 ,23.4,0 ,61.1,0 ,22.9,0 ,22.2,0 
2003/6/2,21:15,14.8,0 ,23.4,0 ,61.2,0 ,22.8,0 ,22.1,0 
2003/6/2,21:30,14.8,0 ,23.3,0 ,61.8,0 ,22.8,0 ,22.1,0 
2003/6/2,21:45,14.7,0 ,23.4,0 ,62.2,0 ,22.7,0 ,22,0 
2003/6/2,22:00,14.5,0 ,23.3,0 ,62.2,0 ,22.7,0 ,22,0 
2003/6/2,22:15,14.1,0 ,23.3,0 ,61.9,0 ,22.7,0 ,22,0 
2003/6/2,22:30,14,0 ,23.2,0 ,62,0 ,22.7,0 ,22,0 
2003/6/2,22:45,14.3,0 ,23.1,0 ,62,0 ,22.7,0 ,21.9,0 
2003/6/2,23:00,14.4,0 ,23.1,0 ,61.8,0 ,22.7,0 ,21.9,0 
2003/6/2,23:15,14.4,0 ,23,0 ,62.2,0 ,22.7,0 ,21.7,0 
2003/6/2,23:30,14.4,0 ,22.9,0 ,63.1,0 ,22.6,0 ,21.7,0 
2003/6/2,23:45,14.1,0 ,22.8,0 ,63.2,0 ,22.6,0 ,21.6,0 
2003/6/3,0:00,13.7,0 ,22.8,0 ,63.2,0 ,22.6,0 ,21.6,0 
2003/6/3,0:15,13,0 ,22.7,0 ,63.3,0 ,22.6,0 ,21.5,0 
2003/6/3,0:30,12.7,0 ,22.7,0 ,63.3,0 ,22.5,0 ,21.5,0 
2003/6/3,0:45,13.1,0 ,22.6,0 ,63.1,0 ,22.5,0 ,21.4,0 
2003/6/3,1:00,12.4,0 ,22.5,0 ,63.4,0 ,22.4,0 ,21.3,0 
2003/6/3,1:15,12.8,0 ,22.4,0 ,63.4,0 ,22.3,0 ,21.3,0 
2003/6/3,1:30,12.5,0 ,22.3,0 ,63.4,0 ,22.3,0 ,21.2,0 
2003/6/3,1:45,12.5,0 ,22.3,0 ,63.3,0 ,22.2,0 ,21.2,0 
2003/6/3,2:00,12.5,0 ,22.2,0 ,63.4,0 ,22.2,0 ,21.1,0 
2003/6/3,2:15,12.4,0 ,22.1,0 ,63.4,0 ,22.1,0 ,21,0 
2003/6/3,2:30,12.1,0 ,22.1,0 ,63.2,0 ,22,0 ,21,0 
2003/6/3,2:45,12.2,0 ,22,0 ,63.2,0 ,22,0 ,20.9,0 
2003/6/3,3:00,12.5,0 ,21.9,0 ,63.3,0 ,21.9,0 ,20.8,0 
2003/6/3,3:15,12.5,0 ,21.8,0 ,63.3,0 ,21.9,0 ,20.8,0 
2003/6/3,3:30,12,0 ,21.8,0 ,63.4,0 ,21.8,0 ,20.7,0 
2003/6/3,3:45,11.7,0 ,21.7,0 ,63.3,0 ,21.8,0 ,20.6,0 
2003/6/3,4:00,11.3,0 ,21.6,0 ,63.4,0 ,21.7,0 ,20.6,0 
2003/6/3,4:15,11.1,0 ,21.6,0 ,63.6,0 ,21.6,0 ,20.5,0 
2003/6/3,4:30,11.2,0 ,21.5,0 ,63.4,0 ,21.5,0 ,20.5,0 
2003/6/3,4:45,11.4,0 ,21.5,0 ,63.2,0 ,21.5,0 ,20.5,0 
2003/6/3,5:00,11.3,0 ,21.6,0 ,63.4,0 ,21.4,0 ,20.4,0 
2003/6/3,5:15,11.5,0 ,21.5,0 ,63.4,0 ,21.3,0 ,20.4,0 
2003/6/3,5:30,11.5,0 ,21.4,0 ,63.7,0 ,21.2,0 ,20.4,0 
2003/6/3,5:45,12.1,0 ,21.4,0 ,63.5,0 ,21.1,0 ,20.4,0 
2003/6/3,6:00,12.2,0 ,21.3,0 ,63.6,0 ,21.1,0 ,20.4,0 
2003/6/3,6:15,12.6,0 ,21.3,0 ,63.8,0 ,21,0 ,20.3,0 
2003/6/3,6:30,12.9,0 ,21.3,0 ,63.7,0 ,21,0 ,20.3,0 
2003/6/3,6:45,13.1,0 ,21.4,0 ,63.6,0 ,21,0 ,20.3,0 
2003/6/3,7:00,13.2,0 ,21.4,0 ,63.6,0 ,20.9,0 ,20.3,0 
2003/6/3,7:15,13.8,0 ,21.4,0 ,63.7,0 ,20.9,0 ,20.3,0 
2003/6/3,7:30,13.9,0 ,21.5,0 ,63.3,0 ,20.9,0 ,20.4,0 
2003/6/3,7:45,14.4,0 ,21.6,0 ,63.1,0 ,20.9,0 ,20.4,0 
2003/6/3,8:00,14.9,0 ,21.7,0 ,62.9,0 ,21.1,0 ,20.5,0 
2003/6/3,8:15,15,0 ,21.8,0 ,63,0 ,21.1,0 ,20.5,0 
2003/6/3,8:30,15.3,0 ,21.9,0 ,62.8,0 ,21.2,0 ,20.6,0 
2003/6/3,8:45,16.2,0 ,21.9,0 ,63,0 ,21.2,0 ,20.6,0 
2003/6/3,9:00,16.7,0 ,22,0 ,62.6,0 ,21.3,0 ,20.7,0 
2003/6/3,9:15,16.8,0 ,22.1,0 ,62.5,0 ,21.3,0 ,20.7,0 
2003/6/3,9:30,17,0 ,22.1,0 ,62.1,0 ,21.4,0 ,20.7,0 
2003/6/3,9:45,17.5,0 ,22.2,0 ,62,0 ,21.5,0 ,20.7,0 
2003/6/3,10:00,17.9,0 ,22.2,0 ,61.9,0 ,21.6,0 ,20.8,0 
2003/6/3,10:15,18.1,0 ,22.3,0 ,61.8,0 ,21.7,0 ,20.8,0 
2003/6/3,10:30,18.8,0 ,22.3,0 ,61.8,0 ,21.8,0 ,20.9,0 
2003/6/3,10:45,18.8,0 ,22.3,0 ,61.7,0 ,21.8,0 ,20.9,0 
2003/6/3,11:00,19,0 ,22.4,0 ,61.6,0 ,21.9,0 ,21,0 
2003/6/3,11:15,19.6,0 ,22.4,0 ,61.5,0 ,22,0 ,21,0 
2003/6/3,11:30,19.5,0 ,22.5,0 ,61.5,0 ,22.1,0 ,21,0 
2003/6/3,11:45,19.8,0 ,22.5,0 ,61.2,0 ,22.2,0 ,21.1,0 
2003/6/3,12:00,19.8,0 ,22.6,0 ,61,0 ,22.2,0 ,21.1,0 
2003/6/3,12:15,20.4,0 ,22.6,0 ,61,0 ,22.3,0 ,21.2,0 
2003/6/3,12:30,20.2,0 ,22.6,0 ,60.8,0 ,22.4,0 ,21.3,0 
2003/6/3,12:45,20.3,0 ,22.8,0 ,60.1,0 ,22.4,0 ,21.3,0 
2003/6/3,13:00,21.2,0 ,23,0 ,60,0 ,22.5,0 ,21.4,0 
2003/6/3,13:15,20.5,0 ,23,0 ,59.9,0 ,22.6,0 ,21.5,0 
2003/6/3,13:30,21.3,0 ,23.2,0 ,59.7,0 ,22.7,0 ,21.5,0 
2003/6/3,13:45,20.7,0 ,23.3,0 ,58.3,0 ,22.8,0 ,21.7,0 
2003/6/3,14:00,20.8,0 ,23.3,0 ,47.1,0 ,22.8,0 ,21.8,0 
2003/6/3,14:15,20.9,0 ,23.3,0 ,47.1,0 ,22.9,0 ,22.1,0 
2003/6/3,14:30,21.3,0 ,23.4,0 ,47.2,0 ,23,0 ,22.3,0 
2003/6/3,14:45,21.3,0 ,23.3,0 ,49.1,0 ,23.2,0 ,22.5,0 
2003/6/3,15:00,20.7,0 ,23.3,0 ,50.8,0 ,23.4,0 ,22.7,0 
2003/6/3,15:15,20.9,0 ,23.4,0 ,52.3,0 ,23.6,0 ,22.9,0 
2003/6/3,15:30,20.7,0 ,23.5,0 ,48.9,0 ,23.9,0 ,23.2,0 
2003/6/3,15:45,20.6,0 ,23.6,0 ,46.7,0 ,23.9,0 ,23.5,0 
2003/6/3,16:00,20.6,0 ,23.6,0 ,44.3,0 ,23.9,0 ,23.7,0 
2003/6/3,16:15,20.8,0 ,23.6,0 ,45,0 ,24.2,0 ,23.9,0 
2003/6/3,16:30,21,0 ,23.7,0 ,44.9,0 ,24.5,0 ,24.2,0 
2003/6/3,16:45,21.7,0 ,23.6,0 ,43.8,0 ,24.8,0 ,24.3,0 
2003/6/3,17:00,21.8,0 ,23.6,0 ,44.6,0 ,25,0 ,24.5,0 
2003/6/3,17:15,20,0 ,23.6,0 ,45.7,0 ,25.2,0 ,24.6,0 
2003/6/3,17:30,19.7,0 ,23.6,0 ,46.1,0 ,25.3,0 ,24.6,0 
2003/6/3,17:45,19.2,0 ,23.6,0 ,46.1,0 ,25.4,0 ,24.7,0 
2003/6/3,18:00,18.8,0 ,23.6,0 ,50.6,0 ,25.5,0 ,24.7,0 
2003/6/3,18:15,18.7,0 ,23.7,0 ,51,0 ,25.4,0 ,24.6,0 
2003/6/3,18:30,18.5,0 ,23.6,0 ,51.7,0 ,25.2,0 ,24.4,0 
2003/6/3,18:45,18.4,0 ,23.6,0 ,52.2,0 ,25.2,0 ,24.2,0 
2003/6/3,19:00,18.1,0 ,23.7,0 ,52,0 ,24.8,0 ,24,0 
2003/6/3,19:15,18,0 ,23.7,0 ,52.2,0 ,24.5,0 ,23.8,0 
2003/6/3,19:30,17.9,0 ,23.6,0 ,52.3,0 ,24.3,0 ,23.7,0 
2003/6/3,19:45,17.6,0 ,23.7,0 ,52.8,0 ,24.1,0 ,23.6,0 
2003/6/3,20:00,17.5,0 ,23.7,0 ,52.8,0 ,24,0 ,23.4,0 
2003/6/3,20:15,17.6,0 ,23.7,0 ,52.7,0 ,23.9,0 ,23.3,0 
2003/6/3,20:30,16.9,0 ,23.7,0 ,52.9,0 ,23.8,0 ,23.2,0 
2003/6/3,20:45,16.9,0 ,23.6,0 ,53.4,0 ,23.7,0 ,23.1,0 
2003/6/3,21:00,16.1,0 ,23.6,0 ,54.2,0 ,23.6,0 ,23,0 
2003/6/3,21:15,15.9,0 ,23.6,0 ,54.3,0 ,23.5,0 ,22.9,0 
2003/6/3,21:30,15.9,0 ,23.6,0 ,54.5,0 ,23.4,0 ,22.8,0 
2003/6/3,21:45,15.3,0 ,23.6,0 ,54.7,0 ,23.4,0 ,22.7,0 
2003/6/3,22:00,14.7,0 ,23.5,0 ,55,0 ,23.3,0 ,22.7,0 
2003/6/3,22:15,15.5,0 ,23.6,0 ,55.7,0 ,23.2,0 ,22.7,0 
2003/6/3,22:30,15.4,0 ,23.6,0 ,55.7,0 ,23.2,0 ,22.6,0 
2003/6/3,22:45,15.3,0 ,23.5,0 ,55.7,0 ,23.1,0 ,22.6,0 
2003/6/3,23:00,15,0 ,23.4,0 ,55.7,0 ,23.1,0 ,22.5,0 
2003/6/3,23:15,14.7,0 ,23.3,0 ,55.7,0 ,23.1,0 ,22.5,0 
2003/6/3,23:30,14.4,0 ,23.2,0 ,56,0 ,23,0 ,22.4,0 
2003/6/3,23:45,13.9,0 ,23.1,0 ,56.1,0 ,22.9,0 ,22.4,0 
2003/6/4,0:00,13.5,0 ,23.1,0 ,56.7,0 ,22.9,0 ,22.3,0 
2003/6/4,0:15,14.8,0 ,23,0 ,57.8,0 ,22.9,0 ,22.2,0 
2003/6/4,0:30,13.7,0 ,22.9,0 ,58.1,0 ,22.8,0 ,22.1,0 
2003/6/4,0:45,13.9,0 ,22.8,0 ,58.4,0 ,22.8,0 ,22,0 
2003/6/4,1:00,13.6,0 ,22.7,0 ,58.5,0 ,22.8,0 ,21.9,0 
2003/6/4,1:15,12.9,0 ,22.7,0 ,58.6,0 ,22.7,0 ,21.8,0 
2003/6/4,1:30,13.2,0 ,22.6,0 ,58.9,0 ,22.7,0 ,21.7,0 
2003/6/4,1:45,12.7,0 ,22.5,0 ,59,0 ,22.7,0 ,21.6,0 
2003/6/4,2:00,12.5,0 ,22.4,0 ,59.2,0 ,22.6,0 ,21.5,0 
2003/6/4,2:15,12.7,0 ,22.4,0 ,59.3,0 ,22.6,0 ,21.4,0 
2003/6/4,2:30,12.2,0 ,22.3,0 ,59.3,0 ,22.5,0 ,21.3,0 
2003/6/4,2:45,11.8,0 ,22.2,0 ,59.4,0 ,22.4,0 ,21.3,0 
2003/6/4,3:00,12.1,0 ,22.1,0 ,59.6,0 ,22.3,0 ,21.2,0 
2003/6/4,3:15,11.7,0 ,22.1,0 ,59.7,0 ,22.3,0 ,21.1,0 
2003/6/4,3:30,11.2,0 ,22,0 ,59.8,0 ,22.2,0 ,21,0 
2003/6/4,3:45,11.4,0 ,21.9,0 ,59.8,0 ,22.1,0 ,21,0 
2003/6/4,4:00,11.5,0 ,21.8,0 ,59.9,0 ,22,0 ,20.9,0 
2003/6/4,4:15,10.7,0 ,21.8,0 ,60,0 ,22,0 ,20.8,0 
2003/6/4,4:30,10.8,0 ,21.7,0 ,60.1,0 ,21.9,0 ,20.7,0 
2003/6/4,4:45,11,0 ,21.7,0 ,59.9,0 ,21.8,0 ,20.7,0 
2003/6/4,5:00,11.1,0 ,21.7,0 ,59.9,0 ,21.7,0 ,20.7,0 
2003/6/4,5:15,10.3,0 ,21.7,0 ,59.6,0 ,21.7,0 ,20.7,0 
2003/6/4,5:30,10.8,0 ,21.6,0 ,60,0 ,21.6,0 ,20.6,0 
2003/6/4,5:45,11.2,0 ,21.6,0 ,60,0 ,21.5,0 ,20.6,0 
2003/6/4,6:00,11.7,0 ,21.5,0 ,60.1,0 ,21.4,0 ,20.5,0 
2003/6/4,6:15,12.1,0 ,21.5,0 ,60.1,0 ,21.4,0 ,20.5,0 
2003/6/4,6:30,12.8,0 ,21.5,0 ,60.3,0 ,21.3,0 ,20.5,0 
2003/6/4,6:45,13,0 ,21.5,0 ,60.2,0 ,21.3,0 ,20.5,0 
2003/6/4,7:00,13.6,0 ,21.5,0 ,60.3,0 ,21.3,0 ,20.5,0 
2003/6/4,7:15,14,0 ,21.7,0 ,60.1,0 ,21.3,0 ,20.5,0 
2003/6/4,7:30,14.4,0 ,21.8,0 ,60.3,0 ,21.3,0 ,20.5,0 
2003/6/4,7:45,15,0 ,21.9,0 ,60.2,0 ,21.3,0 ,20.6,0 
2003/6/4,8:00,15.7,0 ,21.9,0 ,60.2,0 ,21.4,0 ,20.6,0 
2003/6/4,8:15,16,0 ,22,0 ,59.9,0 ,21.4,0 ,20.6,0 
2003/6/4,8:30,16.8,0 ,22,0 ,59.8,0 ,21.4,0 ,20.7,0 
2003/6/4,8:45,17.3,0 ,22.1,0 ,59.7,0 ,21.5,0 ,20.7,0 
2003/6/4,9:00,17.8,0 ,22.1,0 ,59.7,0 ,21.6,0 ,20.8,0 
2003/6/4,9:15,18.4,0 ,22.1,0 ,59.7,0 ,21.6,0 ,20.8,0 
2003/6/4,9:30,19.1,0 ,22.1,0 ,59.6,0 ,21.7,0 ,20.9,0 
2003/6/4,9:45,19.7,0 ,22.2,0 ,59.6,0 ,21.8,0 ,21,0 
2003/6/4,10:00,20.3,0 ,22.3,0 ,59.5,0 ,21.9,0 ,21,0 
2003/6/4,10:15,21,0 ,22.3,0 ,59.4,0 ,22,0 ,21.1,0 
2003/6/4,10:30,21.9,0 ,22.4,0 ,59.3,0 ,22.1,0 ,21.2,0 
2003/6/4,10:45,22.2,0 ,22.6,0 ,59.1,0 ,22.2,0 ,21.2,0 
2003/6/4,11:00,22.5,0 ,22.6,0 ,59.1,0 ,22.3,0 ,21.3,0 
2003/6/4,11:15,22.9,0 ,22.7,0 ,58.9,0 ,22.4,0 ,21.4,0 
2003/6/4,11:30,23.2,0 ,22.8,0 ,58.7,0 ,22.6,0 ,21.5,0 
2003/6/4,11:45,23.3,0 ,22.9,0 ,58.6,0 ,22.8,0 ,21.6,0 
2003/6/4,12:00,23.4,0 ,23,0 ,58.5,0 ,23,0 ,21.8,0 
2003/6/4,12:15,23.9,0 ,23.1,0 ,58.4,0 ,23.1,0 ,21.9,0 
2003/6/4,12:30,24.4,0 ,23.2,0 ,58.2,0 ,23.3,0 ,22,0 
2003/6/4,12:45,24.2,0 ,23.3,0 ,58,0 ,23.4,0 ,22.1,0 
2003/6/4,13:00,24.2,0 ,23.4,0 ,57.9,0 ,23.6,0 ,22.2,0 
2003/6/4,13:15,24.4,0 ,23.5,0 ,57.8,0 ,23.7,0 ,22.4,0 
2003/6/4,13:30,24.6,0 ,23.6,0 ,57.7,0 ,23.9,0 ,22.5,0 
2003/6/4,13:45,24.8,0 ,23.7,0 ,57.5,0 ,24,0 ,22.6,0 
2003/6/4,14:00,25,0 ,23.8,0 ,57.5,0 ,24.1,0 ,22.7,0 
2003/6/4,14:15,24.7,0 ,23.9,0 ,57.4,0 ,24.3,0 ,22.9,0 
2003/6/4,14:30,24.6,0 ,23.9,0 ,57.5,0 ,24.4,0 ,23,0 
2003/6/4,14:45,25,0 ,24,0 ,57.5,0 ,24.6,0 ,23.2,0 
2003/6/4,15:00,25,0 ,24,0 ,57.5,0 ,24.7,0 ,23.4,0 
2003/6/4,15:15,25.1,0 ,24.2,0 ,58,0 ,24.9,0 ,23.6,0 
2003/6/4,15:30,25.1,0 ,24.2,0 ,58,0 ,25.1,0 ,23.7,0 
2003/6/4,15:45,25.6,0 ,24.3,0 ,58.7,0 ,25.3,0 ,23.9,0 
2003/6/4,16:00,25.5,0 ,24.5,0 ,58,0 ,25.5,0 ,24,0 
2003/6/4,16:15,25.2,0 ,24.5,0 ,54.5,0 ,25.6,0 ,24.1,0 
2003/6/4,16:30,25,0 ,24.5,0 ,50.2,0 ,25.6,0 ,24.2,0 
2003/6/4,16:45,24.9,0 ,24.6,0 ,47.5,0 ,25.6,0 ,24.3,0 
2003/6/4,17:00,24.5,0 ,24.6,0 ,39.5,0 ,25.3,0 ,24.2,0 
2003/6/4,17:15,24.3,0 ,24.5,0 ,41.1,0 ,25.2,0 ,24.2,0 
2003/6/4,17:30,24.1,0 ,24.5,0 ,40,0 ,25,0 ,24.1,0 
2003/6/4,17:45,24,0 ,24.5,0 ,38.6,0 ,24.9,0 ,24.1,0 
2003/6/4,18:00,23.7,0 ,24.4,0 ,42.8,0 ,24.8,0 ,24,0 
2003/6/4,18:15,23.5,0 ,24.4,0 ,39.7,0 ,24.7,0 ,23.9,0 
2003/6/4,18:30,23.2,0 ,24.4,0 ,40.2,0 ,24.6,0 ,23.9,0 
2003/6/4,18:45,23,0 ,24.4,0 ,41.7,0 ,24.6,0 ,23.8,0 
2003/6/4,19:00,22.7,0 ,24.3,0 ,42.3,0 ,24.5,0 ,23.8,0 
2003/6/4,19:15,22.5,0 ,24.3,0 ,44.1,0 ,24.5,0 ,23.7,0 
2003/6/4,19:30,22.1,0 ,24.3,0 ,45.7,0 ,24.5,0 ,23.6,0 
2003/6/4,19:45,21.9,0 ,24.3,0 ,46.4,0 ,24.5,0 ,23.6,0 
2003/6/4,20:00,21.4,0 ,24.3,0 ,46,0 ,24.4,0 ,23.5,0 
2003/6/4,20:15,21.1,0 ,24.2,0 ,45.9,0 ,24.4,0 ,23.5,0 
2003/6/4,20:30,21.1,0 ,24.3,0 ,47.7,0 ,24.3,0 ,23.4,0 
2003/6/4,20:45,20.6,0 ,24.3,0 ,48.1,0 ,24.3,0 ,23.4,0 
2003/6/4,21:00,20.8,0 ,24.3,0 ,49.8,0 ,24.3,0 ,23.3,0 
2003/6/4,21:15,20.3,0 ,24.2,0 ,50.3,0 ,24.2,0 ,23.3,0 
2003/6/4,21:30,19.7,0 ,24.2,0 ,49.8,0 ,24.2,0 ,23.2,0 
2003/6/4,21:45,19.4,0 ,24.2,0 ,49.9,0 ,24.2,0 ,23.2,0 
2003/6/4,22:00,19.4,0 ,24.1,0 ,50.9,0 ,24.1,0 ,23.2,0 
2003/6/4,22:15,19.4,0 ,24.2,0 ,52.5,0 ,24.1,0 ,23.1,0 
2003/6/4,22:30,19.3,0 ,24.1,0 ,53.1,0 ,24.2,0 ,23.1,0 
2003/6/4,22:45,18.5,0 ,24.1,0 ,53.7,0 ,24.2,0 ,23.1,0 
2003/6/4,23:00,18.8,0 ,24.1,0 ,54,0 ,24.2,0 ,23.1,0 
2003/6/4,23:15,18.6,0 ,24.1,0 ,54.1,0 ,24.1,0 ,23.1,0 
2003/6/4,23:30,18.1,0 ,24,0 ,54.4,0 ,24.1,0 ,23,0 
2003/6/4,23:45,17.2,0 ,24,0 ,54.5,0 ,24.1,0 ,23,0 
2003/6/5,0:00,17.4,0 ,23.9,0 ,54.9,0 ,24.1,0 ,23,0 
2003/6/5,0:15,17,0 ,23.8,0 ,55.2,0 ,24,0 ,22.9,0 
2003/6/5,0:30,16.7,0 ,23.7,0 ,55.3,0 ,24,0 ,22.8,0 
2003/6/5,0:45,17.3,0 ,23.7,0 ,55.7,0 ,24,0 ,22.8,0 
2003/6/5,1:00,16.8,0 ,23.6,0 ,56,0 ,23.9,0 ,22.7,0 
2003/6/5,1:15,16.4,0 ,23.5,0 ,56,0 ,23.9,0 ,22.7,0 
2003/6/5,1:30,16.7,0 ,23.5,0 ,56.1,0 ,23.9,0 ,22.6,0 
2003/6/5,1:45,16.5,0 ,23.4,0 ,56.6,0 ,23.8,0 ,22.6,0 
2003/6/5,2:00,16.4,0 ,23.4,0 ,56.8,0 ,23.8,0 ,22.5,0 
2003/6/5,2:15,16.1,0 ,23.3,0 ,56.8,0 ,23.8,0 ,22.5,0 
2003/6/5,2:30,16.2,0 ,23.3,0 ,57.1,0 ,23.7,0 ,22.4,0 
2003/6/5,2:45,15.9,0 ,23.2,0 ,57.5,0 ,23.7,0 ,22.4,0 
2003/6/5,3:00,15.3,0 ,23.2,0 ,57.9,0 ,23.6,0 ,22.3,0 
2003/6/5,3:15,15.7,0 ,23.1,0 ,57.8,0 ,23.6,0 ,22.3,0 
2003/6/5,3:30,15.7,0 ,23.1,0 ,58,0 ,23.5,0 ,22.2,0 
2003/6/5,3:45,15.1,0 ,23,0 ,58.2,0 ,23.5,0 ,22.2,0 
2003/6/5,4:00,15.1,0 ,23,0 ,58.3,0 ,23.4,0 ,22.1,0 
2003/6/5,4:15,15.1,0 ,22.9,0 ,58.6,0 ,23.4,0 ,22.1,0 
2003/6/5,4:30,15,0 ,22.9,0 ,58.6,0 ,23.4,0 ,22.1,0 
2003/6/5,4:45,15.1,0 ,22.9,0 ,58.5,0 ,23.3,0 ,22.1,0 
2003/6/5,5:00,14.8,0 ,23,0 ,59,0 ,23.2,0 ,22,0 
2003/6/5,5:15,14.9,0 ,22.9,0 ,59,0 ,23.1,0 ,22,0 
2003/6/5,5:30,15,0 ,22.9,0 ,58.9,0 ,23.1,0 ,22,0 
2003/6/5,5:45,14.9,0 ,22.8,0 ,59,0 ,23,0 ,21.9,0 
2003/6/5,6:00,15.2,0 ,22.8,0 ,59.1,0 ,22.9,0 ,21.9,0 
2003/6/5,6:15,15.4,0 ,22.8,0 ,59.4,0 ,22.9,0 ,21.9,0 
2003/6/5,6:30,15.1,0 ,22.8,0 ,59.2,0 ,22.8,0 ,21.9,0 
2003/6/5,6:45,15.2,0 ,22.7,0 ,59.4,0 ,22.8,0 ,21.9,0 
2003/6/5,7:00,15.1,0 ,22.8,0 ,59.2,0 ,22.8,0 ,21.9,0 
2003/6/5,7:15,15.3,0 ,22.8,0 ,59.3,0 ,22.8,0 ,21.9,0 
2003/6/5,7:30,16.2,0 ,22.9,0 ,59.2,0 ,22.7,0 ,21.9,0 
2003/6/5,7:45,16.8,0 ,23,0 ,59,0 ,22.8,0 ,21.9,0 
2003/6/5,8:00,16.6,0 ,23,0 ,59.2,0 ,22.8,0 ,21.9,0 
2003/6/5,8:15,17.1,0 ,23.1,0 ,58.9,0 ,22.8,0 ,22,0 
2003/6/5,8:30,17.9,0 ,23.2,0 ,58.4,0 ,22.8,0 ,22,0 
2003/6/5,8:45,17.7,0 ,23.3,0 ,58.2,0 ,22.9,0 ,22.1,0 
2003/6/5,9:00,17.9,0 ,23.4,0 ,58.3,0 ,22.9,0 ,22.1,0 
2003/6/5,9:15,18.4,0 ,23.3,0 ,58.6,0 ,23,0 ,22.2,0 
2003/6/5,9:30,19.3,0 ,23.3,0 ,58.4,0 ,23,0 ,22.2,0 
2003/6/5,9:45,19.5,0 ,23.5,0 ,58.4,0 ,23.1,0 ,22.3,0 
2003/6/5,10:00,19.9,0 ,23.5,0 ,58.4,0 ,23.2,0 ,22.3,0 
2003/6/5,10:15,20.9,0 ,23.5,0 ,58.3,0 ,23.3,0 ,22.4,0 
2003/6/5,10:30,21.4,0 ,23.6,0 ,56.7,0 ,23.4,0 ,22.4,0 
2003/6/5,10:45,21.7,0 ,23.7,0 ,53.1,0 ,23.4,0 ,22.5,0 
2003/6/5,11:00,22.4,0 ,23.8,0 ,55.3,0 ,23.5,0 ,22.6,0 
2003/6/5,11:15,22.6,0 ,23.8,0 ,55,0 ,23.6,0 ,22.6,0 
2003/6/5,11:30,22.9,0 ,23.9,0 ,53.1,0 ,23.7,0 ,22.7,0 
2003/6/5,11:45,22.9,0 ,24,0 ,52.7,0 ,23.8,0 ,22.8,0 
2003/6/5,12:00,24,0 ,24,0 ,52.1,0 ,23.8,0 ,22.8,0 
2003/6/5,12:15,24.2,0 ,24,0 ,51.3,0 ,23.9,0 ,22.9,0 
2003/6/5,12:30,24.8,0 ,24.1,0 ,49.1,0 ,24,0 ,23,0 
2003/6/5,12:45,24.8,0 ,24.3,0 ,47.6,0 ,24.1,0 ,23,0 
2003/6/5,13:00,24.9,0 ,24.3,0 ,48.2,0 ,24.1,0 ,23.1,0 
2003/6/5,13:15,24.8,0 ,24.4,0 ,44.1,0 ,24.2,0 ,23.1,0 